Regional Weather Roundup
Issued by NWS

Home | Current Version | Previous Version | Graphics & Text | Print | Product List | Glossary On
Versions: 1 2 3 4 5 6 7 8 9 10 11 12 13 14 15 16 17 18 19 20 21 22 23 24 25 26 27 28 29 30 31 32 33 34 35 36 37 38 39 40 41 42 43 44 45 46 47 48 49 50
000
ASUS43 KFSD 240510
RWRSD

WEATHER ROUNDUP FOR SOUTH DAKOTA
NATIONAL WEATHER SERVICE SIOUX FALLS SD
1200 AM CDT SAT SEP 24 2016

NOTE: "FAIR" INDICATES FEW OR NO CLOUDS BELOW 12,000 FEET WITH NO
SIGNIFICANT WEATHER AND/OR OBSTRUCTIONS TO VISIBILITY.


SDZ001>005-009-010-012>017-240600-
NORTHWEST AND NORTH CENTRAL SOUTH DAKOTA

CITY           SKY/WX    TMP DP  RH WIND       PRES   REMARKS
BUFFALO          N/A     60  59  96 N12       29.73F
FAITH            N/A     60  60 100 NE18      29.74F
MOBRIDGE       PTCLDY    71  60  68 SE21      29.71S
$$

SDZ012>016-024>037-041>051-057-063-072>074-240600-
SOUTHWEST AND SOUTH CENTRAL SOUTH DAKOTA

CITY           SKY/WX    TMP DP  RH WIND       PRES   REMARKS
RAPID CTY ARPT LGT RAIN  62  60  93 NW10      29.81S
PIERRE         CLOUDY    76  57  51 SE18      29.72F
CUSTER         LGT RAIN  47  45  93 W6        29.88F
ELLSWORTH AFB  LGT RAIN  62  62 100 N7        29.80
PHILIP         PTCLDY    64  64 100 SW7       29.74R
PINE RIDGE     MOCLDY    54  50  86 W12       29.84S
WINNER         FAIR      77  59  53 SE21G28   29.76R
$$

SDZ004>011-016>023-039-040-240600-
NORTHEAST SOUTH DAKOTA

CITY           SKY/WX    TMP DP  RH WIND       PRES   REMARKS
ABERDEEN       CLEAR     68  63  84 SE16      29.84R
WATERTOWN      PTCLDY    68  65  90 SE13      29.92S
BROOKINGS      PTCLDY    68  66  93 SE18      29.93R
SISSETON         N/A     66  63  90 S15G21    29.92F
$$

SDZ017-020-022-023-036>040-048>070-240600-
SOUTHEAST SOUTH DAKOTA

CITY           SKY/WX    TMP DP  RH WIND       PRES   REMARKS
SIOUX FALLS    CLEAR     73  63  70 SE13      29.93R
HURON          CLEAR     70  61  73 SE8       29.83R
CHAMBERLAIN    CLEAR     72  60  66 SE8       29.79R
MITCHELL       CLEAR     74  61  63 SE15      29.85R
YANKTON        CLEAR     75  63  64 SE14G21   29.88R
$$

ABBREVIATIONS USED IN REMARKS
   TC - TEMPERATURE IN CELSIUS
  WCI - WIND CHILL INDEX
   HX - HEAT INDEX
  VSB - VISIBILITY





USA.gov is the U.S. government's official web portal to all federal, state and local government web resources and services.